Regional Weather Roundup
Issued by NWS

Home | Current Version | Previous Version | Text Only | Print | Product List | Glossary Off
Versions: 1 2 3 4 5 6 7 8 9 10 11 12 13 14 15 16 17 18 19 20 21 22 23 24 25 26 27 28 29 30 31 32 33 34 35 36 37 38 39 40 41 42 43 44 45 46 47 48 49 50

000
ASUS45 KCYS 202110
RWRWY

WYOMING REGIONAL WEATHER ROUNDUP
NATIONAL WEATHER SERVICE CHEYENNE WY
300 PM MDT WED AUG 20 2014

NOTE:  "FAIR" INDICATES FEW OR NO CLOUDS BELOW 12,000 FEET
WITH NO SIGNIFICANT WEATHER AND/OR OBSTRUCTIONS TO VISIBILITY.

WYZ001-202200-
YELLOWSTONE NATIONAL PARK

CITY           SKY/WX    TMP DP  RH WIND       PRES   REMARKS
LK YELLOWSTONE   N/A     57  43  59 VRB3      30.13F
W YELLOWSTONE  NOT AVBL

$$
WYZ002>013-054>058-071-098>099-202200-
NORTHERN WYOMING

CITY           SKY/WX    TMP DP  RH WIND       PRES   REMARKS
JACKSON        TSTM      66  45  45 S6        30.05F
CODY           CLOUDY   N/A N/A N/A NW21G28   29.93R
GREYBULL       PTSUNNY   82  41  23 MISG      29.84S
WORLAND        PTSUNNY   82  44  26 VRB7      29.85F
SHERIDAN       PTSUNNY   79  46  31 NW9G18    29.86F
BUFFALO        PTSUNNY   77  43  29 N20G25    29.92F
GILLETTE       MOSUNNY   82  46  28 N20G29    29.85F
HULETT         CLOUDY    81  46  30 MISG      29.84
NEWCASTLE      FAIR      82  39  21 NW14G21   29.82

$$
WYZ014>020-022>026-101>103-202200-
CENTRAL WYOMING

CITY           SKY/WX    TMP DP  RH WIND       PRES   REMARKS
BIG PINEY      PTSUNNY   69  42  37 VRB5      30.10F
PINEDALE       LGT RAIN  57  48  72 S10       30.11S
DUBOIS         MOCLDY    64  34  32 W28G35    30.06S
LANDER         MOSUNNY   80  38  22 E5        29.92F
RIVERTON       MOSUNNY   82  36  19 NW13      29.93S
CASPER         PTSUNNY   81  38  21 VRB5      29.90F
DOUGLAS        PTSUNNY   82  44  26 NW12G24   29.89F

$$
WYZ021-027>030-104>119-202200-
SOUTHERN WYOMING

CITY           SKY/WX    TMP DP  RH WIND       PRES   REMARKS
EVANSTON       MOSUNNY   72  44  36 W15G24    30.12S
KEMMERER       MOCLDY    66  43  42 W16       30.12S
FORT BRIDGER   CLOUDY    71  44  37 NW24      30.14R
ROCK SPRINGS   LGT RAIN  59  45  59 NW15      30.12R
DIXON          CLOUDY    63  54  72 SE3       30.14F
RAWLINS        PTSUNNY   68  43  40 S23G30    30.07S
SARATOGA       CLOUDY    63  52  67 MISG      30.13S
LARAMIE        MOSUNNY   73  44  35 W23G29    30.08S
CHEYENNE       PTSUNNY   83  43  24 W20G30    29.98F
TORRINGTON     MOSUNNY   89  48  24 W9        29.83F
PINE BLUFFS    FAIR      84  43  23 W14G20    29.91F

$$


USA.gov is the U.S. government's official web portal to all federal, state and local government web resources and services.